Hourly Data Report for October 03, 2015

All times are specified in Local Standard Time (LST). Add 1 hour to adjust for Daylight Saving Time where and when it is observed.

FREDERICTON
NEW BRUNSWICK

45°52'08.000" N
66°32'14.000" W
20.70 m
8101505
71700
YFC

Download Data

Hourly Data (October 2015)
Hourly Data Report for October 3, 2015
Temp Definition
°C
Dew Point Temp Definition
°C
Rel Hum Definition
%
Wind Dir Definition
10's deg

Wind Spd Definition
km/h
Visibility Definition
km
Stn Press Definition
kPa
Hmdx Definition


Wind Chill Definition


Weather Definition


TIME
00:00 Legend Double Dagger 5.8 3.7 86 36 17 16.1 102.89     LegendNANA
01:00 Legend Double Dagger 5.3 3.4 87 36 15 16.1 102.92     LegendNANA
02:00 Legend Double Dagger 5.4 3.3 87 35 17 16.1 102.94     LegendNANA
03:00 Legend Double Dagger 5.4 3.4 87 35 17 16.1 102.93     LegendNANA
04:00 Legend Double Dagger 5.0 3.3 89 34 18 16.1 102.94     LegendNANA
05:00 Legend Double Dagger 4.6 3.2 91 33 11 16.1 102.94     LegendNANA
06:00 Legend Double Dagger 4.8 3.2 89 31 9 16.1 103.03     LegendNANA
07:00 Legend Double Dagger 5.0 3.0 87 35 11 16.1 103.04     LegendNANA
08:00 Legend Double Dagger 6.2 3.4 82 36 18 16.1 103.08     LegendNANA
09:00 Legend Double Dagger 7.8 4.0 77 36 18 16.1 103.09     LegendNANA
10:00 Legend Double Dagger 8.9 4.5 74 2 26 16.1 103.13     LegendNANA
11:00 Legend Double Dagger 9.3 4.3 71 2 35 16.1 103.13     LegendNANA
12:00 Legend Double Dagger 10.4 3.9 64 3 32 16.1 103.16     LegendNANA
13:00 Legend Double Dagger 11.3 3.6 59 3 26 16.1 103.14     LegendNANA
14:00 Legend Double Dagger 12.4 3.4 54 2 22 16.1 103.08     LegendNANA
15:00 Legend Double Dagger 12.5 0.7 44 3 22 16.1 103.07     LegendNANA
16:00 Legend Double Dagger 12.4 -0.4 41 3 26 16.1 103.07     LegendNANA
17:00 Legend Double Dagger 11.6 0.0 45 1 21 16.1 103.13     LegendNANA
18:00 Legend Double Dagger 9.3 0.3 53 4 15 16.1 103.15     LegendNANA
19:00 Legend Double Dagger 7.2 0.3 62 5 15 16.1 103.21     LegendNANA
20:00 Legend Double Dagger 6.7 0.0 62 5 13 16.1 103.23     LegendNANA
21:00 Legend Double Dagger 4.1 0.9 80 2 9 16.1 103.24     LegendNANA
22:00 Legend Double Dagger 1.5 0.5 93 29 4 16.1 103.25     LegendNANA
23:00 Legend Double Dagger 2.0 0.5 90 31 9 16.1 103.24     LegendNANA

Notes on Data Quality.

Legend

  • E = Estimated
  • M = Missing
  • NA = Not Available
  • ‡ = Partner data that is not subject to review by the National Climate Archives
Date modified: